[[{"header":{"parameterUnit":"m.s-1","parameterCategory":1,"la1":30.2991,"la2":30.254,"lo1":-89.0895,"lo2":-89.0444,"dy":0.0017,"dx":0.0017,"nx":28,"ny":28,"refTime":"2024-05-29T09:00:00:Z","depth":0,"parameterNumber":2,"parameterNumberName":"U-component_of_WINDS"},"data":[0,0,0,0,0,0,0,0,0,0,0,0,0,0,0,0,0,0,0,0,0,0,0,0,0,0,0,0,0,0,0,0,0,0,0,0,0,0,0,0,0,0,0,0,0,0,0,0,0,0,0,0,0,0,0,0,0,0,-3.717,-3.717,0,-3.7171,-3.7171,-3.7171,-3.7127,-3.7126,-3.7125,-3.7124,-3.7125,-3.7126,-3.7127,0,0,0,0,0,0,0,0,0,0,0,0,0,-3.7133,-3.7134,-3.717,-3.717,-3.717,-3.7171,-3.7171,-3.7171,-3.7127,-3.7126,-3.7125,-3.7123,-3.7125,-3.7126,-3.7127,0,0,0,0,0,0,0,0,0,0,0,0,0,-3.7143,-3.7134,-3.717,-3.7149,-3.7147,-3.7171,-3.7171,-3.7171,-3.7128,-3.7126,-3.7124,-3.7123,-3.7124,-3.7126,-3.7127,-3.7172,0,0,-3.7133,-3.7133,0,0,0,0,0,0,0,0,-3.7143,-3.7145,-3.7152,-3.715,-3.7148,-3.7147,-3.7158,-3.7171,-3.7128,-3.7135,-3.7124,-3.7122,-3.7134,-3.7135,-3.7139,-3.7173,-3.7173,-3.7133,-3.7134,-3.7134,-3.7135,0,0,0,0,0,0,0,-3.7142,-3.7144,-3.717,-3.7152,-3.715,-3.714,-3.7139,-3.7161,-3.7144,-3.7134,-3.7131,-3.7132,-3.7132,-3.7137,-3.7138,-3.7173,-3.7133,-3.7134,-3.7135,-3.7136,-3.7245,-3.7247,0,0,0,0,0,0,-3.7144,-3.7144,-3.717,-3.717,-3.7141,-3.7142,-3.7141,-3.7149,-3.7144,-3.7141,-3.7133,-3.713,-3.7135,-3.7136,-3.7138,-3.719,-3.7134,-3.7136,-3.7137,-3.7243,-3.7245,-3.7247,0,0,0,0,0,0,-3.7144,-3.7147,-3.717,-3.7156,-3.7159,-3.7144,-3.7154,-3.715,-3.7154,-3.7143,-3.714,-3.7141,-3.7134,-3.7136,-3.7164,-3.719,-3.7137,-3.7138,-3.7241,-3.7244,-3.7246,-3.7295,0,0,0,0,0,0,-3.7143,-3.7147,-3.7163,-3.7157,-3.716,-3.7196,-3.7155,-3.7151,-3.7157,-3.7153,-3.7149,-3.7147,-3.7132,-3.7162,-3.7166,-3.7191,-3.714,-3.7238,-3.7242,-3.7245,-3.7291,-3.7299,-3.7306,0,0,0,0,0,-3.7141,-3.7177,-3.7164,-3.7168,-3.7179,-3.7198,-3.7199,-3.7181,-3.716,-3.7176,-3.7169,-3.7147,-3.7187,-3.7165,-3.717,-3.7195,-3.7237,-3.7241,-3.7245,-3.7288,-3.7297,-3.7306,0,0,0,0,0,0,-3.7185,-3.7175,-3.7161,-3.7196,-3.7198,-3.719,-3.721,-3.7193,-3.7201,-3.7196,-3.7175,-3.7174,-3.7207,-3.7204,-3.718,-3.7239,-3.7208,-3.7213,-3.7239,-3.7248,-3.7256,-3.7254,-3.7141,0,0,0,0,0,-3.7199,-3.7215,-3.7205,-3.7236,-3.7238,-3.7225,-3.7232,-3.7218,-3.722,-3.722,-3.7215,-3.7218,-3.7231,-3.724,-3.7251,-3.7292,-3.729,-3.7312,-3.7319,-3.7325,-3.7329,-3.7351,-3.736,-3.7261,-3.7261,-3.7261,0,0,-3.7227,-3.7224,-3.7235,-3.7245,-3.7245,-3.7262,-3.7225,-3.7244,-3.7256,-3.7223,-3.7249,-3.7247,-3.7248,-3.7283,-3.7298,-3.7282,-3.7357,-3.7331,-3.7336,-3.7336,-3.7356,-3.7366,-3.7374,-3.7264,-3.7264,-3.7263,0,0,-3.7287,-3.7286,-3.7312,-3.7314,-3.7315,-3.7306,-3.7312,-3.7308,-3.7305,-3.7331,-3.7307,-3.7322,-3.7345,-3.7347,-3.7351,-3.7416,-3.7395,-3.742,-3.7458,-3.748,-3.7487,-3.7494,-3.7516,-3.7524,-3.7425,-3.7425,-3.7425,0,-3.7322,-3.7345,-3.7328,-3.7348,-3.7354,-3.7326,-3.7353,-3.7355,-3.736,-3.7365,-3.7347,-3.7376,-3.7376,-3.7411,-3.7426,-3.7431,-3.7438,-3.7419,-3.7488,-3.7494,-3.75,-3.7521,-3.7529,-3.7428,-3.7427,-3.7427,-3.7427,0,-3.7388,-3.7405,-3.7426,-3.7431,-3.744,-3.7464,-3.745,-3.7461,-3.7449,-3.7442,-3.747,-3.7469,-3.7479,-3.7487,-3.7475,-3.7521,-3.7511,-3.7491,-3.7459,-3.7513,-3.7532,-3.754,-3.7432,-3.7431,-3.743,-3.7429,0,0,-3.7471,-3.7469,-3.7477,-3.7479,-3.748,-3.7493,-3.7517,-3.7528,-3.7537,-3.7543,-3.7562,-3.7583,-3.7565,-3.757,-3.7558,-3.7577,-3.7628,-3.7555,-3.7555,-3.7567,-3.7678,-3.7692,-3.7701,-3.7616,-3.7617,-3.7618,-3.7678,0,-3.7528,-3.7566,-3.7553,-3.7592,-3.7608,-3.7584,-3.7604,-3.7607,-3.7603,-3.7616,-3.7611,-3.7626,-3.7602,-3.7605,-3.7623,-3.7618,-3.7649,-3.7614,-3.7632,-3.7633,-3.763,-3.7711,-3.7725,-3.778,-3.7685,-3.7686,-3.7687,0,-3.7598,-3.7606,-3.7648,-3.7647,-3.7653,-3.7672,-3.7681,-3.7695,-3.7699,-3.7694,-3.7701,-3.7686,-3.7709,-3.768,-3.7712,-3.7688,-3.7696,-3.7695,-3.7697,-3.7696,-3.7662,-3.771,-3.7798,-3.7806,-3.7699,-3.7698,-3.7697,0,-3.7653,-3.7676,-3.7703,-3.7706,-3.7707,-3.772,-3.7721,-3.7723,-3.7731,-3.7741,-3.7746,-3.7758,-3.7764,-3.7774,-3.7763,-3.7742,-3.7797,-3.7766,-3.7793,-3.7794,-3.7803,-3.7802,-3.7891,-3.7812,-3.7812,-3.7812,-3.7812,0,-3.7716,-3.7742,-3.7728,-3.7745,-3.7774,-3.7759,-3.7788,-3.7786,-3.7789,-3.7806,-3.7787,-3.7803,-3.7788,-3.7803,-3.7795,-3.7823,-3.7826,-3.7823,-3.782,-3.7823,-3.7823,-3.7826,-3.7821,-3.7814,-3.7814,-3.7813,-3.7813,0,-3.7781,-3.7773,-3.7801,-3.78,-3.7801,-3.7822,-3.7821,-3.7837,-3.7832,-3.7853,-3.7858,-3.785,-3.7867,-3.7858,-3.7875,-3.787,-3.7906,-3.7899,-3.7904,-3.7901,-3.7928,-3.7925,-3.802,-3.8031,-3.7947,-3.7948,-3.7949,0,-3.7821,-3.784,-3.7842,-3.7851,-3.7853,-3.787,-3.7878,-3.7866,-3.7875,-3.7883,-3.7898,-3.7914,-3.7925,-3.7953,-3.7949,-3.7963,-3.7955,-3.7988,-3.7957,-3.796,-3.7954,-3.7952,-3.7953,-3.7993,-3.7994,-3.7994,-3.7995,0,-3.7891,-3.7887,-3.79,-3.7912,-3.7923,-3.7932,-3.7939,-3.7948,-3.7936,-3.7949,-3.7966,-3.7975,-3.7993,-3.8009,-3.8021,-3.8023,-3.8007,-3.8006,-3.8012,-3.8014,-3.8016,-3.8014,-3.7919,-3.8002,-3.8002,-3.8001,-3.8001,-3.8,-3.7944,-3.796,-3.7964,-3.7979,-3.7984,-3.7992,-3.8007,-3.8005,-3.8019,-3.8033,-3.8026,-3.8046,-3.8051,-3.8066,-3.807,-3.8086,-3.8073,-3.8083,-3.8085,-3.8087,-3.809,-3.8016,-3.8088,-3.8088,-3.8088,-3.8088,-3.8088,0,-3.8012,-3.8014,-3.8029,-3.804,-3.8053,-3.8039,-3.8047,-3.8058,-3.8076,-3.8082,-3.8094,-3.8115,-3.8131,-3.8129,-3.8144,-3.8157,-3.815,-3.8161,-3.8159,-3.8159,-3.8102,-3.8093,-3.8166,-3.8166,-3.8166,-3.8166,-3.8166,-3.8166,-3.8049,-3.8076,-3.8073,-3.8102,-3.8104,-3.8124,-3.813,-3.8137,-3.8142,-3.8166,-3.8179,-3.8179,-3.8182,-3.8197,-3.8212,-3.8211,-3.8216,-3.823,-3.8226,-3.8171,-3.8164,-3.8156,-3.8148,-3.8231,-3.8232,-3.8282,-3.8283,-3.8283]},{"header":{"parameterUnit":"m.s-1","parameterCategory":1,"la1":30.2991,"la2":30.254,"lo1":-89.0895,"lo2":-89.0444,"dy":0.0017,"dx":0.0017,"nx":28,"ny":28,"refTime":"2024-05-29T09:00:00:Z","depth":0,"parameterNumber":3,"parameterNumberName":"V-component_of_WINDS"},"data":[0,0,0,0,0,0,0,0,0,0,0,0,0,0,0,0,0,0,0,0,0,0,0,0,0,0,0,0,0,0,0,0,0,0,0,0,0,0,0,0,0,0,0,0,0,0,0,0,0,0,0,0,0,0,0,0,0,0,3.758,3.758,0,3.7605,3.7606,3.7606,3.7647,3.7648,3.7648,3.7649,3.767,3.767,3.767,0,0,0,0,0,0,0,0,0,0,0,0,0,3.7563,3.7563,3.758,3.758,3.758,3.7605,3.7606,3.7606,3.7647,3.7648,3.7649,3.7649,3.767,3.767,3.767,0,0,0,0,0,0,0,0,0,0,0,0,0,3.7577,3.7563,3.758,3.7604,3.7606,3.7605,3.7606,3.7606,3.7647,3.7648,3.7649,3.765,3.767,3.767,3.767,3.7646,0,0,3.7669,3.7669,0,0,0,0,0,0,0,0,3.7577,3.7578,3.76,3.7602,3.7605,3.7624,3.7608,3.7619,3.7646,3.7631,3.7649,3.765,3.7654,3.7655,3.7657,3.7647,3.7648,3.7669,3.7669,3.7669,3.7669,0,0,0,0,0,0,0,3.7576,3.7577,3.759,3.76,3.7603,3.7612,3.7616,3.761,3.7635,3.7632,3.7636,3.7638,3.7655,3.7657,3.7658,3.7648,3.7669,3.7669,3.7669,3.7669,3.7621,3.762,0,0,0,0,0,0,3.7572,3.7576,3.7589,3.759,3.7593,3.7612,3.7615,3.7617,3.7636,3.764,3.7637,3.764,3.7657,3.7658,3.7659,3.7633,3.7669,3.7669,3.7669,3.7622,3.7621,3.7619,0,0,0,0,0,0,3.7571,3.7572,3.7588,3.7584,3.7587,3.7611,3.7612,3.7617,3.7619,3.7639,3.7644,3.7635,3.7658,3.7659,3.765,3.7634,3.7669,3.7669,3.7623,3.7622,3.762,3.758,0,0,0,0,0,0,3.757,3.7572,3.7564,3.7584,3.7587,3.7579,3.7611,3.7616,3.7619,3.7623,3.7638,3.7642,3.7659,3.765,3.7649,3.7634,3.7669,3.7625,3.7623,3.7621,3.7583,3.7577,3.7572,0,0,0,0,0,3.757,3.755,3.7563,3.7564,3.7577,3.7578,3.758,3.7601,3.7617,3.7609,3.7623,3.7641,3.7636,3.7648,3.7648,3.7633,3.7626,3.7623,3.7621,3.7585,3.7578,3.7572,0,0,0,0,0,0,3.7525,3.7553,3.7568,3.7554,3.7564,3.7585,3.7575,3.7593,3.7597,3.76,3.7625,3.7628,3.7615,3.7623,3.7637,3.7611,3.7634,3.7631,3.7607,3.76,3.7595,3.7593,3.7668,0,0,0,0,0,3.7514,3.7514,3.7537,3.7523,3.7527,3.755,3.7551,3.7567,3.7577,3.7581,3.7594,3.7602,3.7602,3.7602,3.7603,3.7584,3.7588,3.7574,3.7569,3.7564,3.7561,3.7553,3.7547,3.7611,3.7611,3.7611,0,0,3.749,3.7505,3.7503,3.7514,3.7524,3.7522,3.7553,3.7549,3.7548,3.758,3.7573,3.7582,3.7593,3.7579,3.7573,3.7585,3.7545,3.7561,3.7557,3.7557,3.755,3.7544,3.7538,3.7609,3.7609,3.761,0,0,3.7446,3.7458,3.7448,3.7457,3.7472,3.7488,3.7485,3.7504,3.7513,3.7506,3.7531,3.7529,3.7528,3.7536,3.7539,3.75,3.7518,3.75,3.7472,3.7463,3.7458,3.7454,3.7441,3.7435,3.7497,3.7497,3.7497,0,3.7415,3.7414,3.744,3.7436,3.744,3.7471,3.7461,3.7468,3.7482,3.7483,3.7497,3.7499,3.7508,3.7497,3.7487,3.7489,3.7487,3.7498,3.7457,3.7453,3.745,3.7437,3.7432,3.7495,3.7495,3.7495,3.7495,0,3.7375,3.7374,3.7364,3.7379,3.7382,3.7375,3.7399,3.7399,3.7415,3.7429,3.7422,3.7435,3.744,3.7438,3.7453,3.7429,3.7436,3.7453,3.7476,3.7441,3.743,3.7425,3.7491,3.7492,3.7493,3.7493,0,0,3.7302,3.7333,3.7329,3.7337,3.7356,3.7356,3.735,3.7357,3.7356,3.7365,3.736,3.7361,3.7377,3.7381,3.7397,3.739,3.7359,3.7408,3.7408,3.7398,3.7334,3.7322,3.7316,3.7371,3.737,3.737,3.7334,0,3.7263,3.7256,3.728,3.7266,3.7267,3.7297,3.7292,3.7303,3.7316,3.7317,3.7331,3.7332,3.7353,3.7356,3.735,3.7364,3.7346,3.7367,3.7366,3.7366,3.7363,3.731,3.7296,3.7261,3.7329,3.7329,3.7328,0,3.7215,3.7224,3.7211,3.7233,3.7234,3.7229,3.7238,3.7239,3.7252,3.7262,3.7268,3.7287,3.7282,3.7305,3.7299,3.7312,3.7313,3.732,3.732,3.732,3.7345,3.7309,3.7251,3.7246,3.7321,3.7322,3.7322,0,3.7164,3.7172,3.7167,3.7172,3.7197,3.7193,3.7203,3.7217,3.722,3.7228,3.723,3.7236,3.7239,3.7243,3.7264,3.7278,3.7255,3.7279,3.7263,3.7262,3.7256,3.7256,3.7197,3.7257,3.7257,3.7257,3.7257,0,3.7118,3.7109,3.7144,3.714,3.7132,3.7159,3.7149,3.7162,3.7174,3.7173,3.7199,3.7197,3.7224,3.7225,3.7241,3.7233,3.7234,3.7242,3.7246,3.724,3.7239,3.7241,3.7244,3.7256,3.7256,3.7256,3.7256,0,3.7059,3.7083,3.7078,3.7103,3.7109,3.7101,3.7122,3.7119,3.7135,3.7133,3.7134,3.7158,3.7161,3.7182,3.7188,3.7199,3.7186,3.7194,3.7182,3.7185,3.7167,3.7169,3.7108,3.7101,3.7164,3.7164,3.7163,0,3.7028,3.7022,3.7047,3.7049,3.7059,3.7061,3.7065,3.7092,3.7095,3.711,3.7105,3.711,3.7116,3.7118,3.7135,3.7141,3.715,3.7128,3.7151,3.7145,3.715,3.715,3.715,3.7123,3.7122,3.7122,3.7121,0,3.697,3.6982,3.6988,3.6998,3.7003,3.7012,3.7022,3.7022,3.7051,3.7053,3.7057,3.7062,3.707,3.7074,3.7083,3.7092,3.7111,3.7114,3.7111,3.7104,3.7097,3.7101,3.7169,3.7115,3.7116,3.7116,3.7117,3.7117,3.6924,3.6921,3.6939,3.6945,3.6956,3.6966,3.6965,3.6981,3.6986,3.6996,3.7011,3.7013,3.7027,3.7041,3.7048,3.705,3.7061,3.7056,3.7055,3.7053,3.705,3.7097,3.7051,3.7051,3.7052,3.7052,3.7052,0,3.6868,3.6882,3.6887,3.6902,3.6907,3.6927,3.6939,3.6942,3.6944,3.6956,3.6962,3.6966,3.6971,3.699,3.6997,3.6994,3.7003,3.6995,3.6996,3.6997,3.7039,3.7042,3.6988,3.6988,3.6988,3.6988,3.6988,3.6988,3.684,3.6836,3.6851,3.6853,3.6866,3.687,3.6876,3.6885,3.6895,3.69,3.6905,3.6918,3.6932,3.6941,3.6946,3.6952,3.6953,3.6942,3.695,3.6988,3.6994,3.7,3.7003,3.6942,3.6942,3.6908,3.6908,3.6908]}]]